Location: Pouillon
(43.6048°N, 0.9995°W)
Time: 21:31:54
(UTC+00:00)

Daily predictions for brighter satellites

Satellite Brightness Start Highest point End
(mag) Time Altitude Azimuth Time Altitude Azimuth Time Altitude Azimuth
Cosmos 2228 Rocket 3.8 17:19:44 10° SSE 17:23:49 34° E 17:27:56 10° NNE
USA 215 4.1 17:17:56 10° NE 17:23:58 41° NNW 17:29:58 10° W
Cosmos 2279 Rocket 4.1 17:21:47 10° N 17:27:52 55° ENE 17:33:54 10° SSE
Meteor 1-12 Rocket 4.3 17:22:51 10° N 17:28:37 86° E 17:34:27 10° S
Cosmos 1898 Rocket 4.3 17:25:28 10° N 17:30:08 30° ENE 17:34:47 10° ESE
PSLV R/B 3.4 17:28:14 10° SSE 17:32:13 62° ENE 17:36:16 10° N
Okean 1-7 4.1 17:34:05 10° SE 17:37:34 25° E 17:41:03 10° NE
SL-16 R/B 3.7 17:34:22 10° SE 17:37:36 16° E 17:40:51 10° ENE
Cosmos 1980 3.8 17:32:06 10° S 17:37:37 59° ESE 17:43:10 10° NNE
SMAP 3.4 17:36:38 10° S 17:41:16 73° WSW 17:45:57 10° NNW
Cosmos 1953 2.2 17:40:48 10° N 17:44:27 51° ENE 17:48:04 10° SSE
Lacrosse 5 3.9 17:42:28 10° WNW 17:46:58 32° SW 17:51:27 10° S
CZ-2D R/B 4.4 17:43:08 10° S 17:47:17 53° W 17:51:27 10° NNW
NOSS 0 Rocket 4.0 17:41:20 10° SSW 17:47:29 87° WNW 17:53:41 10° NNE
SKYMED 2 3.9 17:46:53 10° NNE 17:51:04 44° E 17:55:12 10° S
ATLAS 2AS CENTAUR R/B 3.4 17:47:45 10° NNW 17:53:41 31° NE 17:59:05 12° E
COSMOS 2428 3.7 17:49:25 10° SW 17:54:54 47° WNW 18:00:24 10° NNE
ACS3 Solar Sail 2.2 17:49:11 10° SE 17:55:08 43° ENE 18:01:05 10° N
Cosmos 2369 Rocket 3.7 17:52:09 10° N 17:55:24 15° NE 17:56:55 14° ENE
IGS 5A 3.4 17:51:59 10° SSE 17:56:00 85° WSW 18:00:02 10° NNW
Cosmos 990 Rocket 4.4 17:53:51 10° NNW 17:59:04 69° WSW 18:04:14 10° S
Cosmos 372 Rocket 4.1 17:55:22 10° N 18:00:19 50° ENE 18:05:14 10° SE
Cosmos 1174 3.8 17:57:00 10° NNW 18:00:45 86° ENE 18:05:22 10° SSE
BREEZE-M DEB (TANK) 4.2 17:54:33 10° W 18:04:41 52° NNW 18:07:22 18° NE
DNEPR-1 R/B 3.5 18:00:04 10° NNW 18:04:49 67° NE 18:09:02 10° SE
Cosmos 1908 Rocket 4.2 18:04:46 10° NNE 18:08:39 31° ENE 18:12:29 10° SE
Meteor 1-31 Rocket 2.8 18:08:06 10° SE 18:11:29 43° ENE 18:14:53 10° N
Okean 3 3.9 18:07:39 10° SSW 18:11:42 62° W 18:15:48 10° N
Cosmos 1707 Rocket 3.9 18:08:03 10° SSW 18:12:28 71° W 18:16:55 10° N
EO 1 Delta rocket 3.8 18:10:18 10° NNE 18:14:57 63° E 18:19:37 10° S
Okean 2 3.5 18:11:34 10° SSW 18:15:29 71° W 18:19:27 10° N
CZ-4 R/B 4.4 18:15:16 10° SSE 18:19:16 85° WSW 18:23:18 10° NNW
Cosmos 1937 Rocket 3.5 18:15:16 10° NNW 18:20:21 56° ENE 18:25:25 10° SE
CZ-2C R/B 4.2 18:22:18 17° NNE 18:22:18 17° NNE 18:23:22 10° N
Cosmos 2026 Rocket 4.4 18:15:20 10° SSE 18:21:10 39° E 18:26:59 10° NNE
Cosmos 1825 4.2 18:23:09 10° SSE 18:23:11 10° SSE 18:23:11 10° SSE
BREEZE-M DEB (TANK) 4.0 18:07:58 10° WSW 18:25:53 81° NNW 18:28:56 25° ENE
Cosmos 1428 Rocket 4.5 18:21:50 10° S 18:27:55 60° E 18:33:59 10° NNE
Cosmos 1943 Rocket 2.6 18:23:34 10° NNW 18:29:10 64° WSW 18:34:41 10° S
RESURS DK-1 2.8 18:25:50 10° NNW 18:29:49 62° WSW 18:33:47 10° SSE
Cosmos 1862 Rocket 4.5 18:26:12 10° SSW 18:30:25 49° WNW 18:34:43 10° N
Cosmos 2237 Rocket 2.8 18:26:11 10° SW 18:31:46 57° WNW 18:37:25 10° NNE
BlueWalker 3 2.9 18:30:37 10° NW 18:33:49 28° NNE 18:33:53 28° NNE
NOAA 15 4.5 18:29:01 10° SSE 18:34:12 71° ENE 18:39:26 10° N
CZ-4B R/B 3.5 18:33:40 10° SSE 18:37:18 88° W 18:40:52 10° NNW
ISS -2.7 18:35:13 10° W 18:38:19 35° NNW 18:39:01 31° N
NOAA 6 3.9 18:34:03 10° SSE 18:39:09 89° ENE 18:44:19 10° NNW
COSMO-SKYMED 1 3.2 18:34:55 10° N 18:39:11 56° WNW 18:43:25 10° SSW
Cosmos 2344 4.4 18:35:12 10° WSW 18:42:17 42° NW 18:48:47 12° NNE
Cosmos 2278 Rocket 3.7 18:38:15 10° NW 18:43:25 37° WSW 18:48:33 10° S
YAOGAN 1 2.5 18:43:35 10° S 18:47:51 83° WSW 18:52:09 10° NNW
CZ-4C R/B 2.3 18:45:44 10° SW 18:49:59 55° NW 18:53:04 23° NNE
Nadezhda 4 Rocket 4.2 18:45:24 10° SSW 18:51:28 68° W 18:57:36 10° N
YAOGAN 11 3.9 18:51:31 35° NNE 18:53:16 78° ESE 18:57:32 10° S
ATLAS 5 CENTAUR R/B 0.9 18:51:36 10° SW 18:54:38 68° WNW 18:54:38 68° WNW
Cosmos 2195 Rocket 4.4 18:49:48 10° S 18:56:00 85° E 19:02:11 10° N
Meteor 1-24 Rocket 4.0 18:50:27 10° SSE 18:56:05 49° E 18:58:08 35° NE
SPOT 1/Viking Rocket 3.4 18:53:58 10° SSE 18:59:07 80° ENE 19:04:17 10° N
Cosmos 1703 Rocket 3.6 18:54:42 10° SSW 18:59:09 79° W 19:02:12 20° N
Resurs 1-3 3.4 18:59:20 10° SSE 19:03:38 88° ENE 19:07:59 10° NNW
Meteor 2-5 Rocket 3.8 19:01:05 10° S 19:06:40 57° E 19:07:38 51° ENE
Cosmos 1703 4.2 19:06:10 10° SSW 19:09:31 41° WNW 19:10:32 32° NW
Cosmos 1656 Rocket 3.5 19:08:13 10° NNW 19:13:44 76° ENE 19:14:50 57° SE
Cosmos 1814 Rocket 4.1 19:15:34 10° S 19:20:11 63° SSE 19:20:11 63° SSE
SL-16 R/B 2.2 19:15:18 10° SSW 19:20:57 77° WNW 19:22:50 44° NNE
Cosmos 1553 Rocket 4.4 19:19:34 10° N 19:23:51 44° NNE 19:23:51 44° NNE
ADEOS 4.4 19:29:31 38° N 19:29:31 38° N 19:32:43 10° N
Cosmos 1818 3.9 19:30:50 10° NW 19:36:14 63° WSW 19:37:01 56° SSW
Cosmos 1092 Rocket 4.4 19:31:25 10° SSW 19:37:29 59° W 19:43:39 10° N
ACS3 Solar Sail 3.4 19:33:00 10° SSW 19:38:43 34° W 19:44:29 10° NNW
Cosmos 2369 Rocket 2.7 19:34:42 10° NNW 19:38:45 49° NNW 19:38:45 49° NNW
ATLAS 2AS CENTAUR R/B 2.7 19:38:26 10° NW 19:45:10 72° WSW 19:46:35 55° S
Cosmos 839 Rocket 4.1 19:45:40 10° SW 19:52:16 71° NW 19:52:34 70° NW
Cosmos 2297 4.5 19:57:48 10° NNW 20:02:16 49° WNW 20:02:16 49° WNW
